Flag for Portugal Weather past 2 weeks in Braga, Portugal

Now
63 °F

Mild.


Feels Like: 63 °F
Forecast: 51 / 79 °F
Wind: 1 mph from Northwest

Location: Porto / Pedras Rubras

Current Time: Aug 20, 2014 at 8:01:14 PM

Latest Report: Aug 20, 2014 at 7:00 PM


Visibility: N/A

Pressure: 30.05 "Hg

Humidity: 79%

Dew point: 56 °F

Location of BragaLocation

Historic Weather in Braga — Graph

°F

Braga temperature yesterday

Maximum temperature yesterday: 68 °F (at 6:00 PM)
Minimum temperature yesterday: 61 °F (at 4:00 AM)
Average temperature yesterday: 64 °F

Past Weeks' High & Low Weather Summary

 TemperatureHumidityPressure
High85 °F (Aug 17, 12:00 PM)93% (Aug 6, 1:00 AM)30.19 "Hg (Aug 6, 1:00 AM)
Low54 °F (Aug 13, 6:00 AM)26% (Aug 17, 11:00 AM)29.85 "Hg (Aug 18, 4:00 AM)
Average67 °F74%30.04 "Hg
* Reported Aug 5 6:00 PM — Aug 20 6:00 PM, Braga, Weather by CustomWeather, © 2014

Note: Actual official high and low records may vary slightly from our data, if they occured in-between our weather recording intervals... More about our weather records

Advertising

Braga weather history for previous 24 hours

 ConditionsComfort  
Time TempWeatherWind HumidityBarometerVisibility
6:00 PM
Aug 20
64 °FMild.2 mph74%30.06 "HgN/A
5:00 PM66 °FMild.3 mph71%30.06 "HgN/A
4:00 PM67 °FMild.3 mph70%30.06 "HgN/A
3:00 PM69 °FMild.3 mph64%30.07 "HgN/A
2:00 PM68 °FMild.5 mph68%30.08 "HgN/A
1:00 PM68 °FMild.5 mph65%30.09 "HgN/A
12:00 PM69 °FMild.5 mph63%30.09 "HgN/A
11:00 AM69 °FMild.2 mph66%30.08 "HgN/A
10:00 AM64 °FMild.2 mph76%30.07 "HgN/A
9:00 AM63 °FMild.3 mph79%30.07 "HgN/A
8:00 AM61 °FCool.3 mph86%30.06 "HgN/A
7:00 AM60 °FCool.5 mph89%30.05 "HgN/A
6:00 AM60 °FCool.3 mph90%30.04 "HgN/A
5:00 AM60 °FCool.5 mph91%30.04 "HgN/A
4:00 AM60 °FCool.3 mph92%30.04 "HgN/A
3:00 AM60 °FCool.3 mph91%30.04 "HgN/A
2:00 AM61 °FCool.3 mph90%30.04 "HgN/A
1:00 AM61 °FCool.3 mph90%30.05 "HgN/A
12:00 AM61 °FCool.2 mph89%30.05 "HgN/A
11:00 PM
Aug 19
61 °FCool.2 mph86%30.05 "HgN/A
10:00 PM62 °FCool.1 mph83%30.04 "HgN/A
9:00 PM62 °FCool.2 mph85%30.03 "HgN/A
8:00 PM64 °FMild.2 mph82%30.01 "HgN/A
Weather by CustomWeather, © 2014

See weather overviewHow to use our weather pages